Regional Weather Roundup
Issued by NWS

Home | Current Version | Previous Version | Text Only | Print | Product List | Glossary Off
Versions: 1 2 3 4 5 6 7 8 9 10 11 12 13 14 15 16 17 18 19 20 21 22 23 24 25 26 27 28 29 30 31 32 33 34 35 36 37 38 39 40 41 42 43 44 45 46 47 48 49 50

000
ASUS43 KMKX 050911
RWRWI

WISCONSIN REGIONAL WEATHER ROUNDUP
NATIONAL WEATHER SERVICE MILWAUKEE/SULLIVAN WI
400 AM CDT WED AUG 05 2015

NOTE: "FAIR" INDICATES FEW OR NO CLOUDS BELOW 12,000 FEET WITH NO
SIGNIFICANT WEATHER AND/OR OBSTRUCTIONS TO VISIBILITY.

WIZ001-002-006>008-014>016-023>028-051000-
NORTHWEST WISCONSIN

CITY           SKY/WX    TMP DP  RH WIND       PRES   REMARKS
SUPERIOR ARPT  PTCLDY    47  47 100 CALM      30.09R FOG
ASHLAND        FOG       47  47 100 CALM      30.09R VSB 1/2
HAYWARD        CLEAR     49  47  93 NE5       30.09R
SIREN          CLEAR     51  50  95 CALM      30.08S
CUMBERLAND     CLEAR     50  48  93 CALM      30.08S
RICE LAKE      CLEAR     50  49  95 N3        30.09S
CHETEK         CLEAR     54  52  95 CALM      30.08R
LADYSMITH      PTCLDY    52  50  92 CALM      30.09S
EAU CLAIRE     CLEAR     55  53  93 NE3       30.05S
MENOMONIE      CLEAR     57  54  88 N3        30.06R
NEW RICHMOND   CLEAR     56  54  94 CALM      30.07S
OSCEOLA        CLEAR     57  57 100 CALM      30.09S
$$

WIZ003>005-009-010-017-018-051000-
NORTH CENTRAL WISCONSIN

CITY           SKY/WX    TMP DP  RH WIND       PRES   REMARKS
MANITOWISH WTR FOG       42  42 100 CALM      30.09S VSB<1/4
ARBOR VITAE    CLEAR     49  47  93 CALM      30.09S
WOODRUFF       CLEAR     49  47  93 CALM      30.09S
RHINELANDER    CLEAR     47  44  90 CALM      30.10R FOG
EAGLE RIVER    CLEAR     42  42 100 CALM      30.09S
LAND O LAKES   CLEAR     40  40 100 CALM      30.10S
PHILLIPS       CLEAR     50  50 100 CALM      30.09R
TOMAHAWK       CLOUDY    54  51  89 CALM      30.09R
MEDFORD        CLEAR     50  49  98 NE3       30.08S
MERRILL        NOT AVBL
$$

WIZ029-030-035-036-043>047-051000-
CENTRAL WISCONSIN

CITY           SKY/WX    TMP DP  RH WIND       PRES   REMARKS
WAUSAU         PTCLDY    56  52  86 CALM      30.06R
MOSINEE        CLEAR     52  52 100 E5        30.07S
MARSHFIELD     CLEAR     57  51  80 NE5       30.06R
STEVENS POINT  CLOUDY    53  52  95 NE3       30.07R
WAUPACA        PTCLDY    56  55  97 CALM      30.06R
WAUTOMA        PTCLDY    56  53  89 CALM      30.06R
WISC RAPIDS    MOCLDY    57  53  86 CALM      30.06S
CAMP DOUGLAS   CLEAR     51  51 100 NE1       30.04R
$$

WIZ011>013-019>022-031-037>040-048>050-051000-
NORTHEAST WISCONSIN

CITY           SKY/WX    TMP DP  RH WIND       PRES   REMARKS
ANTIGO         MOCLDY    53  51  95 CALM      30.08S
SHAWANO        CLOUDY    61  57  87 NE5       30.07S
OCONTO         PTCLDY    55  55 100 N3        30.06R
STURGEON BAY   PTCLDY    57  52  82 NE3       30.08S
GREEN BAY      CLEAR     56  55  97 N3        30.06R
MANITOWOC      PTCLDY    57  56  96 MISG      30.05R
APPLETON       CLEAR     55  55 100 NE5       30.05S
CLINTONVILLE   CLEAR     55  54  94 CALM      30.06R
OSHKOSH        CLEAR     57  52  83 W3        30.03S
$$

WIZ032>034-041-042-053>061-051000-
SOUTHWEST WISCONSIN

CITY           SKY/WX    TMP DP  RH WIND       PRES   REMARKS
LA CROSSE      CLEAR     60  57  89 SE3       30.04S
SPARTA         CLEAR     49  48  95 CALM      30.06S
VIROQUA        CLEAR     57  57  99 W5        30.06S
BOSCOBEL       FOG       52  51  97 CALM      30.06R VSB 1
PRAIRIE DU CHI PTCLDY    55  53  92 CALM      30.05R
PLATTEVILLE    PTCLDY    59  55  85 N5        30.05S
$$

WIZ056-057-062-063-064-067-068-051000-
SOUTH CENTRAL WISCONSIN

CITY           SKY/WX    TMP DP  RH WIND       PRES   REMARKS
REEDSBURG      CLEAR     54  53  97 CALM      30.04F
BARABOO/DELLS  CLEAR     55  51  89 CALM      30.05S
LONE ROCK      CLEAR     53  50  89 CALM      30.05F
MINERAL POINT  CLEAR     57  54  88 CALM      30.06S
MADISON        CLEAR     57  54  89 CALM      30.03F
MIDDLETON      CLEAR     53  52  94 CALM      30.05S
WATERTOWN      CLEAR     54  54 100 CALM      30.03F
MONROE         PTCLDY    64  52  63 W5        30.05S
JANESVILLE     CLEAR     55  54  94 CALM      30.04S FOG
$$

WIZ051-052-058>065-066-070>072-051000-
SOUTHEAST WISCONSIN

CITY           SKY/WX    TMP DP  RH WIND       PRES   REMARKS
MILWAUKEE      MOCLDY    64  56  75 CALM      30.02F
WAUKESHA       CLEAR     55  52  88 CALM      30.05S
MILWAUKEE/TIMM CLEAR     59  52  77 CALM      30.04S
RACINE         CLEAR     62  55  77 W6        30.04S
BURLINGTON     CLEAR     51  51  98 CALM      30.03F
KENOSHA        CLEAR     57  55  93 W3        30.03F
FOND DU LAC    CLEAR     56  55  97 CALM      30.04S
SHEBOYGAN      PTCLDY    55  55 100 CALM      30.04R
WEST BEND      CLEAR     54  54 100 CALM      30.04S
JUNEAU         MOCLDY    56  55  94 CALM      30.05S
$$

LSZ147-162-051000-
LAKE SUPERIOR

STATION/POSITION TIME  TEMP    WIND        PRES    WAVE
                       AIR SEA DIR/SP/G            HT/PER
                 (UTC) (F)     (DEG/KT/KT) (MB)    (FT/S)
W MID LAKE BUOY  0850   57 56  300/  8/ 10 1018.6S   0
DEVILS ISLAND    0900   58     330/  7/  8 1018.9F
PORT WING        0840   52     170/  3/  4 1019.0R
SAXON HARBOR     0840   50        CALM     1018.3R
$$

LMZ867-665-643>646-051000-
LAKE MICHIGAN

STATION/POSITION TIME  TEMP    WIND        PRES    WAVE
                       AIR SEA DIR/SP/G            HT/PER
                 (UTC) (F)     (DEG/KT/KT) (MB)    (FT/S)
CHAMBERS ISLAND  0800   63     340/  9/ 11 1017.6R
S GREEN BAY BUOY 0800   65 71   80/ 10/ 14 1018.7
N MID LAKE BUOY  0850   61 68  320/ 10/ 12 1017.2F   1
NORTHPORT PIER   0900   63     350/  7/ 12 1017.9R
SISTER BAY       0818   58        CALM       N/A
ALGOMA LAKESHORE 0843           60/  9/ 12   N/A
KEWAUNEE LAKESHO 0800   60      30/  3/  5 1016.7R
SHEBOYGAN LAKESH 0900   62     350/  5/  6 1017.2R
PORT WASHINGTON  0800   63     270/  1/  3 1017.3S
ATWATER BUOY     0900   61 59  310/  4/  4 1018.1S
MILWAUKEE LAKESH 0800   68     290/  3/  4   N/A
KENOSHA   LAKESH 0900   65     270/  8/  9 1016.6S
$$

TC  - TEMPERATURE IN CELSIUS
VSB - VISIBILITY IN STATUTE MILES
WCI - WIND CHILL INDEX
HX  - HEAT INDEX




USA.gov is the U.S. government's official web portal to all federal, state and local government web resources and services.